ZQ-2E DEB, 69632

Orbit data source: Space-Track

ZQ-2E DEB, 69632 is space debris in LEO originally from a launch on Tue, 09 Jun 2026 UTC launched from the Jiuquan Satellite Launch Center, China (JSC). Debris objects in space refer to the collection of defunct objects orbiting the Earth. Examples of debris include non-operational satellites, rocket bodies, and fragments generated from explosions, collisions, or faulty payload assembly.

Not visible in the next 10 days
Identifier
69632, 2026-128G
Orbit
LEO
Country
Flag of CNCN / PRC
Related business
Flag of CNLandspace (CN)
Manufacturer
Lanjian Hangtian
Mission
Spacecraft
Bus & Motor
Unknown
Mass
Unknown
Launch date (UTC)
2026-06-09 (2 weeks ago)
Launch vehicle
Unknown
Launch site
Jiuquan Satellite Launch Center, China (JSC)
Object type
Payload
Rocket body
Debris
Shape & HBR
Unknown
Radar Cross Section
Medium (>0.1 m² and <1 m²)

Expand to show TLE details & history
Last TLE update: 9 hours ago

TLE from 9 hours ago
0 ZQ-2E DEB
1 69632U 26128G   26171.45771674  .02729173  61183-2  50440-2 0  9990
2 69632  54.5168 287.2569 0079988  17.2732 343.1008 15.95974975  1729
Epoch: 2026-06-20T10:59Z
TLE epoch observation values (Epoch: 2026-06-20T10:59:06.726Z)
Latitude
-0.00001°
Longitude
-146.19319°
Altitude
235.709 km
Speed
7.796 km/s
True Right ascension
19h 09m 01s
True Declination
0° 00' 00"
Sunlit
Object was in full shadow at epoch
Visualization orbit readout
Latitude
Unknown
Longitude
Unknown
Altitude
Unknown
Speed
Unknown
Apparent Right ascension
Unknown
Apparent Declination
Unknown
Sunlit
N/A
Visualization observer readout
Local Sidereal Time
07:11:47
Azimuth
Unknown
Elevation
Unknown
Doppler factor
Unknown
Orbital elements
Apogee altitude
338.941 km
Perigee altitude
232.337 km
Semi-major axis
6,663.776 km
Eccentricity
0.008
Inclination
54.5168°
RAAN
287.2569°
Arg. of periapsis
17.2732°
True anomaly
342.83178°
Mean anomaly
343.1008°
Eccentric anomaly
342.96655°
Mean motion
3.98991 °/min
Orbital period
90.23 mins
BSTAR
0.005044
Loading maneuver chart data...
Computing Atmospheric mass density...
Loading historical data...
Loading historical data...
Loading historical data...
Loading historical data...
Loading historical data...
Loading historical data...
Loading historical data...

Documentation

Showing up to 5 results
|